Terug naar catalogus

STARLINK-38055

ActiefCommunicatieSSO
NORAD 69704·PAYLOAD·🇺🇸 United States

Gelanceerd Jun 28, 2026 vanaf Vandenberg Space Force Base

Loading…

Volgende Passages (komende 24 uur)

TLE

VersSource: CelesTrak SupGP

Epoch: Sep 15, 2026, 03:09 UTC

1 69704C 26147A   26258.13173611 -.00030563  00000+0 -94876-3 0  2585
2 69704  97.2835 294.4898 0001114  98.3125 340.2780 15.33454417    13

Volg STARLINK-38055 in realtime met AllMySat

Download on the App Store